Home   Weather   Ansbach   Past weeks
Flag for Germany

Past Weather in Ansbach, Bavaria, Germany — Yesterday and Last 2 Weeks

Now
40 °F

Fog.


Feels Like: 37 °F
Forecast: 40 / 33 °F
Wind: 3 mph from Southeast

Location: Ansbach / Katterbach

Current Time: Nov 21, 2019 at 3:29:32 pm

Latest Report: Nov 21, 2019 at 2:56 pm


Visibility: 6 mi

Pressure: 29.87 "Hg

Humidity: 100%

Dew Point: 40 °F

Location of AnsbachLocation

Past Weather in Ansbach — Graph

°F

Ansbach Temperature Yesterday

Maximum temperature yesterday: 36 °F (at 1:45 pm)
Minimum temperature yesterday: 28 °F (at 3:27 am)
Average temperature yesterday: 33 °F

High & Low Weather Summary for the Past Weeks

 TemperatureHumidityPressure
High50 °F (Nov 7, 12:56 pm)100% (Nov 6, 8:56 pm)30.15 "Hg (Nov 6, 8:56 pm)
Low28 °F (Nov 10, 4:56 am)60% (Nov 18, 1:56 pm)29.49 "Hg (Nov 15, 7:56 am)
Average38 °F95%29.86 "Hg
* Reported Nov 6 1:20 pm — Nov 21 1:56 pm, Ansbach. Weather by CustomWeather, © 2019

Note: Actual official high and low records may vary slightly from our data, if they occured in-between our weather recording intervals... More about our weather records

Advertising

Ansbach Weather History for the Previous 24 Hours

Scroll right to see more
 ConditionsComfort  
Time TempWeatherWind HumidityBarometerVisibility
1:56 pm
Thu, Nov 21
40 °FFog.No wind100%29.87 "Hg5 mi
1:26 pm39 °FFog.No wind100%29.87 "Hg3 mi
12:56 pm39 °FFog.5 mph100%29.87 "Hg2 mi
12:41 pm39 °FFog.No wind100%29.88 "Hg2 mi
12:26 pm39 °FFog.No wind100%29.88 "Hg3 mi
12:11 pm39 °FFog.No wind100%29.89 "Hg2 mi
11:56 am39 °FFog.No wind100%29.89 "Hg2 mi
11:26 am39 °FFog.No wind100%29.90 "Hg2 mi
10:56 am39 °FFog.No wind100%29.90 "Hg3 mi
10:41 am39 °FFog.No wind100%29.91 "Hg3 mi
10:26 am39 °FFog.No wind100%29.91 "Hg4 mi
9:56 am38 °FFog.No wind100%29.90 "Hg2 mi
9:48 am39 °FFog.No wind100%29.90 "Hg1 mi
9:12 am37 °FDrizzle. Fog.No wind100%29.92 "Hg0 mi
8:56 am38 °FFog.No wind100%29.92 "Hg0 mi
8:26 am37 °FFog.No wind100%29.93 "Hg0 mi
7:56 am37 °FFog.No wind100%29.92 "Hg0 mi
6:56 am37 °FFog.No wind100%29.90 "Hg0 mi
5:56 am37 °FFog.No wind100%29.92 "Hg1 mi
4:56 am37 °FFog.No wind100%29.92 "Hg1 mi
4:41 am36 °FFog.No wind100%29.92 "Hg1 mi
4:26 am36 °FFog.No wind100%29.93 "Hg1 mi
4:11 am36 °FFog.No wind100%29.93 "Hg1 mi
3:26 am36 °FFog.No wind100%29.94 "Hg1 mi
2:56 am36 °FFog.No wind100%29.94 "Hg2 mi
2:11 am36 °FFog.No wind100%29.96 "Hg2 mi
1:56 am36 °FFog.3 mph100%29.96 "Hg4 mi
12:56 am36 °FFog.No wind100%29.97 "Hg6 mi
12:37 am36 °FFog.3 mph100%29.97 "Hg6 mi
11:56 pm
Wed, Nov 20
36 °FFog.No wind100%29.98 "Hg6 mi
11:26 pm36 °FFog.No wind100%29.99 "Hg6 mi
10:56 pm35 °FFog.No wind100%30.01 "Hg6 mi
10:26 pm36 °FFog.No wind100%30.01 "Hg6 mi
9:56 pm36 °FFog.3 mph100%30.01 "Hg6 mi
9:26 pm36 °FFog.3 mph100%30.01 "Hg6 mi
8:56 pm35 °FOvercast.3 mph100%30.03 "HgN/A
8:41 pm36 °FOvercast.3 mph100%30.03 "HgN/A
7:56 pm35 °FOvercast.5 mph100%30.03 "HgN/A
6:56 pm35 °FFog.No wind100%30.03 "Hg2 mi
6:41 pm36 °FFog.3 mph100%30.03 "Hg3 mi
6:26 pm34 °FFog.No wind100%30.04 "Hg2 mi
5:56 pm35 °FFog.3 mph100%30.05 "Hg1 mi
5:26 pm34 °FFog.3 mph100%30.05 "Hg2 mi
4:58 pm36 °FFog.5 mph100%29.94 "Hg1 mi
4:30 pm36 °FPassing clouds.6 mph100%30.04 "HgN/A
4:15 pm36 °FPassing clouds.3 mph100%30.05 "HgN/A
3:56 pm36 °FSunny.5 mph100%30.05 "HgN/A
3:26 pm36 °FScattered clouds.3 mph100%30.05 "HgN/A
3:11 pm36 °FPartly sunny.3 mph100%30.04 "HgN/A
Weather by CustomWeather, © 2019

See weather overview